Home > Weather > Charlottesville > Past weeks

Flag for U.S.A. Weather for the Past 2 Weeks in Charlottesville, Virginia, U.S.A.

Now
22 °F

Clear.


Feels Like: 17 °F
Forecast: 16 / 35 °F
Wind: 3 mph from Northwest

Location: Charlottesville-Albemarle Airport

Current Time: Feb 11, 2016 at 9:36:57 PM

Latest Report: Feb 11, 2016 at 8:53 PM


Visibility: 10 mi

Pressure: 30.31 "Hg

Humidity: 38%

Dew point: 0 °F

Location of CharlottesvilleLocation

Historic Weather in Charlottesville — Graph

°F

Charlottesville Temperature Yesterday

Maximum temperature yesterday: 37 °F (at 12:53 PM)
Minimum temperature yesterday: 23 °F (at 11:53 PM)
Average temperature yesterday: 30 °F

High & Low Weather Summary for the Past Weeks

 TemperatureHumidityPressure
High65 °F (Feb 1, 12:53 PM)100% (Feb 3, 1:00 PM)30.46 "Hg (Feb 3, 1:00 PM)
Low18 °F (Feb 11, 6:53 AM)24% (Feb 11, 1:53 PM)29.53 "Hg (Feb 9, 1:53 PM)
Average39 °F60%29.98 "Hg
* Reported Jan 27 7:53 PM — Feb 11 7:53 PM, Charlottesville, Weather by CustomWeather, © 2016

Note: Actual official high and low records may vary slightly from our data, if they occured in-between our weather recording intervals... More about our weather records

Advertising

Charlottesville Weather History for the Previous 24 Hours

 ConditionsComfort  
Time TempWeatherWind HumidityBarometerVisibility
7:53 PM
Thu, Feb 11
24 °FClear.5 mph33%30.28 "Hg10 mi
6:53 PM25 °FClear.5 mph32%30.25 "Hg10 mi
5:53 PM27 °FClear.7 mph28%30.22 "Hg10 mi
4:53 PM29 °FSunny.7 mph25%30.18 "Hg10 mi
3:53 PM30 °FSunny.12 mph24%30.15 "Hg10 mi
2:53 PM30 °FSunny.8 mph24%30.13 "Hg10 mi
1:53 PM30 °FSunny.6 mph24%30.12 "Hg10 mi
12:53 PM30 °FSunny.12 mph25%30.12 "Hg10 mi
11:53 AM28 °FSunny.13 mph26%30.14 "Hg10 mi
10:53 AM27 °FSunny.8 mph29%30.14 "Hg10 mi
9:53 AM24 °FSunny.7 mph33%30.14 "Hg10 mi
8:53 AM22 °FSunny.6 mph38%30.14 "Hg10 mi
7:53 AM19 °FSunny.No wind41%30.11 "Hg10 mi
6:53 AM18 °FClear.7 mph41%30.09 "Hg10 mi
5:53 AM19 °FClear.8 mph39%30.06 "Hg10 mi
4:53 AM20 °FClear.5 mph40%30.03 "Hg10 mi
3:53 AM20 °FClear.5 mph40%30.01 "Hg10 mi
2:53 AM22 °FPassing clouds.8 mph42%30.00 "Hg10 mi
1:53 AM21 °FPassing clouds.3 mph47%30.00 "Hg10 mi
12:53 AM22 °FClear.5 mph42%30.00 "Hg10 mi
11:53 PM
Wed, Feb 10
23 °FClear.6 mph40%29.99 "Hg10 mi
10:53 PM24 °FClear.7 mph38%29.98 "Hg10 mi
9:53 PM24 °FPassing clouds.7 mph38%29.96 "Hg10 mi
Weather by CustomWeather, © 2016

See weather overviewHow to use our weather pages